Location: Newark
(49.8969°N, 3.3422°E)
Time: 22:31:01
(UTC+00:00)

Explorer 7 - Pass Details

Date: 28 January 2020
Orbit: 485 x 679 km, 50.3° (Epoch: 19 February)

Event Time Altitude Azimuth Distance (km) Brightness Sun altitude
Rises 22:49:44 0° 254° (WSW) 2,569 - -55.3°
Reaches altitude 10° 22:51:55 10° 254° (WSW) 1,676 - -55.5°
Maximum altitude 22:55:41 82° 168° (SSE) 495 - -55.8°
Drops below altitude 10° 22:59:27 10° 80° (E) 1,675 - -56.0°
Sets 23:01:38 0° 80° (E) 2,567 - -56.2°
